Probability
0 0 0 0 0 0 0 0 0 0 0 0 0 0 0 0 0 0 0 0 0 0 0 0 0 0 0 0 0 0 0 0 0 0 0 0 0 0 0 0 0 0 0
0 0 0 0 0 0 0 0 0 0 0 0 0 0 0 0 0 0 0 0 0 0 0 0 0 0 0 0 0 0 0 0 0 0 0 0 0 0 0 0 0 0 0
0 0 0 0 0 0 0 0 0 0 0 0 0 0 0 0 0 0 0 0 0 0 0 0 0 0 0 0 0 0 0 0 0 0 0 0 0 0 0 0 0 0 0
0 0 0 0 0 0 0 0 0 0 0 0 0 0 0 0 0 0 0 0 0 0 0 0 0 0 0 0 0 0 0 0 0 0 0 0 0 0 0 0 0 0 0
0 0 0 0 0 0 0 0 0 0 0 0 0 0 0 0 0 0 0 0 0 0 0 0 0 0 0 0 0 0 0 0 0 0 0 0 0 0 0 0 0 0 0
0 0 0 0 0 0 0 0 0 0 0 0 0 0 0 0 0 0 0 0 0 0 0 0 0 0 0 0 0 0 0 0 0 0 0 0 0 0 0 0 0 0 0
0 0 0 0 0 0 0 0 0 0 0 0 0 0 0 0 0 0 0 0 0 0 0 0 0 0 0 0 0 0 0 0 0 0 0 0 0 0 0 0 0 0 0
0 0 0 0 0 0 0 0 0 0 0 0 0 0 0 0 0 0 0 0 0 0 0 0 0 0 0 0 0 0 0 0 0 0 0 0 0 0 0 0 0 0 0
0 0 0 0 0 0 0 0 0 0 0 0 0 0 0 0 0 0 0 0 0 0 0 0 0 0 0 0 0 0 0 0 0 0 0 0 0 0 0 0 0 1 1
0 0 0 0 0 0 0 0 0 0 0 0 0 0 0 0 0 0 0 0 0 0 0 0 0 0 0 0 0 0 0 0 0 0 0 0 0 0 0 1 3 3 4
0 0 0 0 0 0 0 0 0 0 0 0 0 0 0 0 0 0 0 0 0 0 0 0 0 0 0 0 0 0 0 0 0 0 0 0 0 0 1 3 6 7 7
0 0 0 0 0 0 0 0 0 0 0 0 0 0 0 0 0 0 0 0 0 0 0 0 0 0 0 0 0 0 0 0 0 0 0 0 0 0 1 3 5 6 7
0 0 0 0 0 0 0 0 0 0 0 0 0 0 0 0 0 0 0 0 0 0 0 0 0 0 0 0 0 0 0 0 0 0 0 0 0 0 0 1 1 2 3
0 0 0 0 0 0 0 0 0 0 0 0 0 0 0 0 0 0 0 0 0 0 0 0 0 0 0 0 0 0 0 0 0 0 0 0 0 0 0 0 0 0 1
0 0 0 0 0 0 0 0 0 0 0 0 0 0 0 0 0 0 0 0 0 0 0 0 0 0 0 0 0 0 0 0 0 0 0 0 0 0 0 0 0 0 0
0 0 0 0 0 0 0 0 0 0 0 0 0 0 0 0 0 0 0 0 0 0 0 0 0 0 0 0 0 0 0 0 0 0 0 0 0 0 0 0 0 0 0
0 0 0 0 0 0 0 0 0 0 0 0 0 0 0 0 0 0 0 0 0 0 0 0 0 0 0 0 0 0 0 0 0 0 0 0 0 0 0 0 0 0 0
0 0 0 0 0 0 0 0 0 0 0 0 0 0 0 0 0 0 0 0 0 0 0 0 0 0 0 0 0 0 0 0 0 0 0 0 0 0 0 0 0 0 0
0 0 0 0 0 0 0 0 0 0 0 0 0 0 0 0 0 0 0 0 0 0 0 0 0 0 0 0 0 0 0 0 0 0 0 0 0 0 0 0 0 0 0
0 0 0 0 0 0 0 0 0 0 0 0 0 0 0 0 0 0 0 0 0 0 0 0 0 0 0 0 0 0 0 0 0 0 0 0 0 0 0 0 0 0 0
0 0 0 0 0 0 0 0 0 0 0 0 0 0 0 0 0 0 0 0 0 0 0 0 0 0 0 0 0 0 0 0 0 0 0 0 0 0 0 0 0 0 0
0 0 0 0 0 0 0 0 0 0 0 0 0 0 0 0 0 0 0 0 0 0 0 0 0 0 0 0 0 0 0 0 0 0 0 0 0 0 0 0 0 0 0
0 0 0 0 0 0 0 0 0 0 0 0 0 0 0 0 0 0 0 0 0 0 0 0 0 0 0 0 0 0 0 0 0 0 0 0 0 0 0 0 0 0 0
0 0 0 0 0 0 0 0 0 0 0 0 0 0 0 0 0 0 0 0 0 0 0 0 0 0 0 0 0 0 0 0 0 0 0 0 0 0 0 0 0 0 0
0 0 0 0 0 0 0 0 0 0 0 0 0 0 0 0 0 0 0 0 0 0 0 0 0 0 0 0 0 0 0 0 0 0 0 0 0 0 0 0 0 0 0
0 0 0 0 0 0 0 0 0 0 0 0 0 0 0 0 0 0 0 0 0 0 0 0 0 0 0 0 0 0 0 0 0 0 0 0 0 0 0 0 0 0 0
Wind_Speed
3 3 2 2 3 3 3 4 4 5 5 5 5 6 6 6 5 5 5 12 15 16 17 17 17 17 17 16 16 16 16 16 17 17 18 19 20 22 25 27 28 28 29
4 5 5 5 5 4 4 4 5 5 4 4 6 6 6 6 6 6 5 7 13 15 18 19 19 19 19 19 19 19 19 19 19 19 19 19 19 19 20 22 25 28 30
7 6 5 5 4 4 5 5 5 5 5 6 6 6 5 6 6 6 5 4 6 11 17 18 20 20 20 20 21 21 21 21 21 21 21 21 20 20 20 20 21 22 25
8 7 6 5 4 4 5 4 5 4 5 5 5 5 5 5 5 5 4 4 4 5 9 18 19 20 20 21 21 21 21 22 22 22 23 22 22 22 22 21 21 21 21
8 7 5 4 5 5 5 4 4 4 4 5 5 5 5 4 3 5 5 5 5 5 5 12 18 20 21 21 21 22 23 23 23 24 24 23 23 22 22 22 22 22 22
8 7 5 5 5 5 5 4 4 4 3 4 5 6 5 4 2 3 6 5 6 7 7 8 8 12 19 21 22 24 25 25 25 25 24 24 23 23 23 23 23 23 23
8 7 5 5 5 5 5 5 3 4 3 4 3 5 5 4 3 4 5 4 6 6 8 8 7 6 7 18 22 25 26 25 25 25 25 25 25 25 25 25 25 25 25
7 6 6 5 4 4 5 5 4 3 3 3 2 3 5 6 5 7 4 4 5 6 8 9 8 6 6 5 15 25 25 25 26 26 26 26 26 26 27 27 27 27 27
7 6 6 5 4 4 3 4 3 3 2 3 2 3 3 4 6 4 3 3 5 6 5 6 7 6 8 7 8 15 23 25 27 27 28 27 28 28 29 29 29 29 29
6 6 5 5 4 3 3 3 3 2 2 2 2 1 1 3 4 6 5 4 6 6 6 8 6 6 7 6 10 18 23 25 27 28 29 29 29 29 30 30 30 30 30
5 5 5 4 4 3 3 3 3 3 2 2 2 2 2 3 4 5 9 6 6 6 6 6 6 6 7 6 5 13 25 27 28 29 29 30 30 30 30 30 30 30 30
3 4 4 4 3 2 3 3 3 3 3 3 2 2 2 3 4 5 9 11 8 6 7 6 7 6 6 5 10 22 26 28 29 30 30 31 31 30 30 30 31 30 30
2 2 3 3 2 3 3 3 3 4 4 4 4 3 3 4 4 5 9 13 14 8 6 5 6 6 6 5 7 21 23 27 28 29 31 32 32 31 31 31 31 31 31
1 1 2 2 3 4 4 4 3 4 4 4 6 5 3 4 3 5 7 12 16 11 6 6 4 5 6 5 10 23 13 25 28 30 31 32 32 31 31 32 32 32 32
1 2 2 3 3 4 4 4 3 5 5 4 5 4 3 4 4 5 6 6 10 17 16 7 5 5 5 5 13 11 10 20 29 31 31 31 31 31 31 32 33 34 34
2 2 3 3 4 4 4 4 5 5 6 5 4 4 4 4 5 5 6 6 7 12 16 11 8 7 8 11 18 12 10 27 28 30 30 31 31 32 33 34 35 35 35
2 3 3 4 5 5 5 5 6 7 6 6 5 5 6 7 6 6 6 7 7 8 15 16 12 9 10 11 11 8 10 10 12 25 29 32 34 35 35 35 35 35 35
2 3 3 4 5 6 6 6 7 7 7 7 7 6 7 8 8 8 7 8 9 9 12 18 15 12 13 12 11 9 11 12 9 22 30 32 34 35 35 35 34 34 34
3 3 4 5 6 7 7 7 7 7 7 7 7 6 7 8 10 9 10 10 9 10 9 14 16 13 12 10 11 12 11 9 12 18 26 28 30 32 33 33 34 34 33
3 4 5 5 6 7 7 7 7 7 7 7 6 6 8 9 11 11 11 9 10 11 11 13 14 13 11 9 9 11 13 8 10 13 18 21 25 30 31 32 33 33 33
4 5 5 6 7 7 7 10 8 7 7 6 6 7 8 14 19 16 14 13 13 12 13 13 14 14 12 11 11 11 15 14 10 9 10 10 12 12 15 22 28 30 32
4 5 6 6 7 8 17 20 16 8 6 6 8 8 10 12 17 23 27 27 24 18 16 15 14 15 16 14 13 14 15 16 15 6 9 13 11 13 12 11 23 32 33
5 5 6 6 7 10 19 21 21 12 7 7 8 9 11 13 18 12 19 24 21 26 25 17 16 16 17 16 17 17 15 16 17 13 13 16 10 13 12 16 29 33 34
4 4 6 7 7 10 20 21 22 9 7 8 9 9 10 11 13 19 16 16 14 12 17 14 12 14 15 14 14 16 17 16 15 11 11 15 13 13 14 13 25 33 34
4 5 5 6 7 9 17 20 21 8 7 9 9 9 12 11 23 29 20 16 14 12 18 24 25 24 28 29 23 14 13 13 15 13 9 11 13 14 14 14 18 28 29
5 5 6 6 7 7 15 20 21 6 8 9 7 8 16 21 27 29 17 12 14 15 15 14 16 19 17 18 23 14 12 13 14 12 8 7 12 12 11 8 8 9 14
Wind_Direction
147 112 84 62 45 37 44 41 32 29 22 13 8 4 357 355 353 350 344 355 7 13 14 13 7 3 358 354 350 345 340 334 326 318 310 303 295 283 270 261 256 253 251
100 85 69 57 46 41 49 50 39 32 22 11 3 355 353 355 352 350 357 8 15 18 17 17 15 12 6 1 356 352 349 346 343 339 333 327 319 312 303 290 275 263 256
85 82 72 60 44 39 47 44 31 32 24 11 353 344 346 352 349 355 5 12 2 9 15 14 11 6 1 355 350 347 345 343 340 336 332 327 323 320 315 309 303 292 276
86 82 73 60 46 43 40 43 26 23 15 1 342 329 335 340 348 4 1 4 4 9 12 11 7 1 357 352 350 347 345 341 337 332 327 322 318 315 313 312 310 307 303
81 81 72 58 51 48 37 36 34 28 12 350 326 315 320 331 342 3 357 5 7 10 13 3 2 357 355 354 352 347 342 336 332 327 323 318 315 311 308 305 305 305 305
75 76 69 55 53 52 37 29 25 19 10 340 319 311 306 311 344 358 359 2 0 6 6 358 357 350 352 351 347 340 335 331 326 323 320 317 313 310 307 304 302 300 299
68 67 65 53 50 55 45 32 19 8 352 344 338 319 318 327 343 345 352 353 356 359 353 348 345 338 342 344 340 334 330 326 323 320 317 313 310 307 304 301 299 297 296
65 68 64 58 50 52 42 34 29 11 340 359 351 335 337 333 341 328 317 343 352 347 334 333 325 324 333 329 326 328 324 322 319 315 312 310 307 305 302 299 298 296 295
69 68 67 66 56 55 42 26 27 27 340 327 0 54 7 313 311 300 314 337 331 314 308 312 305 317 317 318 313 318 318 318 315 313 310 308 306 303 300 298 297 296 295
68 66 65 63 57 49 35 6 21 360 354 340 338 33 219 243 296 307 305 304 300 299 292 297 296 288 295 294 302 317 316 314 312 309 307 305 303 301 299 297 296 296 295
62 62 61 56 46 33 18 4 355 352 345 328 319 308 290 259 235 262 293 299 297 288 286 281 279 280 284 288 295 308 315 312 309 307 305 303 301 298 297 296 296 295 294
51 45 53 47 36 19 358 344 337 338 328 319 309 297 293 290 297 284 295 302 296 282 274 275 279 279 280 291 306 313 311 308 306 304 303 301 299 298 299 297 296 294 293
64 32 39 33 18 354 343 341 335 328 320 320 304 289 280 273 282 295 304 306 302 293 263 251 254 262 279 287 297 303 303 303 303 302 301 300 299 299 298 296 294 292 291
136 75 47 26 6 354 345 340 327 315 315 307 307 302 292 290 296 298 300 307 307 302 283 268 250 244 257 260 275 298 295 296 298 298 297 296 296 296 295 294 293 291 289
120 68 36 10 355 347 337 333 313 303 301 294 296 298 297 292 293 288 288 291 299 305 303 294 282 248 249 258 280 285 272 287 295 296 295 294 293 292 292 293 292 290 288
72 45 14 357 345 334 326 318 302 294 295 294 290 295 293 290 290 288 287 285 281 288 295 300 295 281 275 288 292 288 278 291 296 296 294 293 292 293 292 292 291 289 287
57 25 358 344 330 318 312 304 295 295 294 293 291 295 290 293 296 295 291 286 281 280 289 297 297 294 284 281 286 270 275 275 280 290 293 293 292 291 290 290 289 288 286
27 359 342 330 319 314 306 298 295 302 295 290 286 287 290 305 302 298 293 286 285 278 282 293 299 300 294 291 291 288 293 291 284 290 292 292 292 292 291 291 289 287 285
1 343 334 324 317 311 304 296 290 289 285 280 280 282 288 299 301 299 294 290 287 289 285 290 295 295 294 296 298 295 286 281 285 292 295 294 292 291 290 290 290 289 287
351 339 332 324 318 312 302 296 295 291 287 281 276 275 283 292 295 297 296 290 297 299 294 292 293 296 296 295 295 300 300 286 286 291 290 289 290 292 291 290 289 288 286
352 343 338 331 326 319 317 321 313 306 301 292 282 277 285 304 309 309 309 310 306 301 301 301 300 302 303 305 303 301 300 299 286 281 284 284 285 281 282 282 284 283 281
352 351 342 329 323 329 329 332 332 321 311 303 299 296 296 303 306 315 313 309 308 307 306 303 304 305 305 304 302 301 301 302 299 291 285 290 284 281 279 274 278 281 281
349 340 327 318 312 317 335 337 334 335 326 312 304 304 309 312 315 299 300 307 307 305 306 306 303 302 302 304 303 302 300 298 297 299 296 291 285 282 280 281 285 284 283
335 317 306 306 309 323 338 337 335 340 315 303 297 295 298 301 305 309 307 308 304 304 303 303 296 298 300 300 297 300 299 297 292 287 285 289 291 287 286 282 283 283 282
314 300 298 305 310 317 332 334 334 314 305 300 294 297 306 305 307 315 318 315 314 308 310 310 310 309 309 309 308 306 303 301 299 297 289 282 288 291 286 280 278 281 282
296 300 304 305 305 302 320 330 328 308 307 306 300 293 310 315 315 321 323 321 316 312 315 317 313 309 305 301 307 306 300 296 296 296 289 280 290 298 294 267 260 270 277